OCN6V LGIR-EDDM

Flight info

Callsign OCN6V
Flight time 2h 48m
Altitude 38000
Route EPALO M749 DIRMI UL613 YNN UL604 DIMIS DCT RETRA DCT NIVES DCT GORPA DCT RASTA DCT REDBU Q112 NAPSA NAPSA1B
Aircraft A320/M-SDE2E3FGIJ1LORWXYZ/HB1

Departure

Time 2026-05-05 18:03
Airport Heraklion International Nikos Kazantzakis Airport (LGIR)

Arrival

Time 2026-05-05 20:52
Airport Munich Airport (EDDM)
Time Latitude Longitude Altitude Speed Heading
2026-05-05 17:51 35.33874 25.17539 91 ft 0 kts 321°
2026-05-05 17:58 35.33877 25.17536 94 ft 4 kts 321°
2026-05-05 17:58 35.33893 25.17528 91 ft 0 kts 355°
2026-05-05 17:58 35.33914 25.17552 93 ft 9 kts 74°
2026-05-05 17:59 35.33904 25.17620 91 ft 8 kts 103°
2026-05-05 17:59 35.33896 25.17732 93 ft 17 kts 95°
2026-05-05 17:59 35.33886 25.17870 92 ft 16 kts 95°
2026-05-05 17:59 35.33877 25.17998 92 ft 14 kts 95°
2026-05-05 18:00 35.33868 25.18113 93 ft 14 kts 95°
2026-05-05 18:00 35.33857 25.18294 92 ft 28 kts 95°
2026-05-05 18:00 35.33840 25.18541 94 ft 30 kts 95°
2026-05-05 18:00 35.33822 25.18800 90 ft 25 kts 95°
2026-05-05 18:01 35.33819 25.18850 90 ft 0 kts 95°
2026-05-05 18:02 35.33818 25.18856 90 ft 5 kts 95°
2026-05-05 18:02 35.33838 25.18960 90 ft 15 kts 57°
2026-05-05 18:02 35.33898 25.19017 92 ft 7 kts 308°
2026-05-05 18:02 35.33915 25.18906 88 ft 24 kts 275°
2026-05-05 18:03 35.33943 25.18504 91 ft 80 kts 275°
2026-05-05 18:03 35.34006 25.17576 92 ft 136 kts 275°
2026-05-05 18:03 35.34114 25.16312 470 ft 151 kts 280°
2026-05-05 18:03 35.34319 25.15038 1108 ft 156 kts 300°
2026-05-05 18:04 35.35157 25.14121 1482 ft 178 kts 340°
2026-05-05 18:04 35.36432 25.13757 1849 ft 197 kts 343°
2026-05-05 18:04 35.37845 25.13260 2123 ft 226 kts 341°
2026-05-05 18:04 35.39435 25.12686 2568 ft 250 kts 342°
2026-05-05 18:05 35.41102 25.12078 3409 ft 257 kts 342°
2026-05-05 18:05 35.42824 25.11430 4345 ft 261 kts 342°
2026-05-05 18:05 35.44553 25.10744 5381 ft 259 kts 343°
2026-05-05 18:05 35.46275 25.10105 6427 ft 258 kts 345°
2026-05-05 18:06 35.47984 25.09478 7433 ft 255 kts 345°
2026-05-05 18:06 35.48558 25.09266 7764 ft 254 kts 345°
2026-05-05 18:06 35.51383 25.08236 9176 ft 263 kts 345°
2026-05-05 18:06 35.53183 25.07627 9839 ft 274 kts 346°
2026-05-05 18:07 35.55060 25.07035 10497 ft 283 kts 346°
2026-05-05 18:07 35.57015 25.06410 10761 ft 307 kts 345°
2026-05-05 18:07 35.58906 25.05732 10947 ft 326 kts 343°
2026-05-05 18:08 35.58995 25.05699 10975 ft 327 kts 343°
2026-05-05 18:08 35.61215 25.04863 11537 ft 333 kts 343°
2026-05-05 18:08 35.63408 25.03949 12358 ft 335 kts 336°
2026-05-05 18:08 35.65388 25.02410 13070 ft 339 kts 324°
2026-05-05 18:09 35.67278 25.00679 13909 ft 339 kts 324°
2026-05-05 18:09 35.69171 24.98906 14482 ft 345 kts 323°
2026-05-05 18:09 35.71045 24.97091 15087 ft 349 kts 322°
2026-05-05 18:09 35.72933 24.95203 15738 ft 351 kts 321°
2026-05-05 18:10 35.73342 24.94790 15885 ft 352 kts 321°
2026-05-05 18:10 35.75260 24.92907 16564 ft 353 kts 323°
2026-05-05 18:10 35.77219 24.91081 17248 ft 354 kts 324°
2026-05-05 18:10 35.79216 24.89303 17957 ft 354 kts 325°
2026-05-05 18:11 35.81231 24.87535 18549 ft 357 kts 324°
2026-05-05 18:11 35.83240 24.85717 19089 ft 359 kts 323°
2026-05-05 18:11 35.85240 24.83862 19632 ft 361 kts 323°
2026-05-05 18:11 35.87214 24.82015 20172 ft 362 kts 323°
2026-05-05 18:12 35.89224 24.80130 20714 ft 364 kts 323°
2026-05-05 18:12 35.91239 24.78236 21242 ft 365 kts 323°
2026-05-05 18:12 35.93268 24.76328 21752 ft 367 kts 323°
2026-05-05 18:12 35.95301 24.74416 22276 ft 369 kts 323°
2026-05-05 18:13 35.97350 24.72489 22778 ft 371 kts 323°
2026-05-05 18:13 35.99411 24.70555 23276 ft 373 kts 323°
2026-05-05 18:13 36.01481 24.68611 23762 ft 375 kts 323°
2026-05-05 18:13 36.03560 24.66661 24166 ft 376 kts 323°
2026-05-05 18:14 36.05651 24.64704 24565 ft 378 kts 323°
2026-05-05 18:14 36.07755 24.62739 24959 ft 379 kts 323°
2026-05-05 18:14 36.09863 24.60761 25347 ft 381 kts 323°
2026-05-05 18:14 36.11948 24.58800 25723 ft 383 kts 323°
2026-05-05 18:15 36.14072 24.56802 26101 ft 384 kts 323°
2026-05-05 18:15 36.16199 24.54799 26481 ft 386 kts 323°
2026-05-05 18:15 36.18337 24.52777 26854 ft 387 kts 323°
2026-05-05 18:15 36.20480 24.50749 27225 ft 389 kts 323°
2026-05-05 18:16 36.22631 24.48708 27590 ft 391 kts 323°
2026-05-05 18:16 36.24794 24.46654 27937 ft 392 kts 323°
2026-05-05 18:16 36.26965 24.44592 28279 ft 394 kts 323°
2026-05-05 18:16 36.29144 24.42525 28607 ft 395 kts 323°
2026-05-05 18:17 36.31333 24.40452 28960 ft 397 kts 323°
2026-05-05 18:17 36.33501 24.38401 29275 ft 398 kts 323°
2026-05-05 18:17 36.35706 24.36316 29575 ft 399 kts 323°
2026-05-05 18:17 36.37917 24.34222 29898 ft 401 kts 323°
2026-05-05 18:18 36.40131 24.32122 30241 ft 401 kts 323°
2026-05-05 18:18 36.42342 24.30021 30611 ft 399 kts 323°
2026-05-05 18:18 36.44541 24.27927 30957 ft 399 kts 323°
2026-05-05 18:18 36.46740 24.25828 31292 ft 398 kts 323°
2026-05-05 18:19 36.48934 24.23734 31624 ft 398 kts 323°
2026-05-05 18:19 36.51125 24.21643 31949 ft 397 kts 323°
2026-05-05 18:19 36.53317 24.19554 32290 ft 397 kts 323°
2026-05-05 18:19 36.55506 24.17467 32622 ft 396 kts 323°
2026-05-05 18:20 36.57694 24.15377 32957 ft 396 kts 322°
2026-05-05 18:20 36.59136 24.13999 33194 ft 395 kts 323°
2026-05-05 18:20 36.61312 24.11917 33581 ft 393 kts 323°
2026-05-05 18:20 36.64177 24.09172 34055 ft 392 kts 323°
2026-05-05 18:21 36.66337 24.07099 34350 ft 391 kts 323°
2026-05-05 18:21 36.68490 24.05028 34634 ft 391 kts 323°
2026-05-05 18:21 36.70639 24.02959 34918 ft 390 kts 322°
2026-05-05 18:21 36.72786 24.00893 35208 ft 389 kts 322°
2026-05-05 18:22 36.74201 23.99534 35392 ft 389 kts 322°
2026-05-05 18:22 36.76344 23.97476 35666 ft 388 kts 322°
2026-05-05 18:22 36.78479 23.95424 35923 ft 387 kts 322°
2026-05-05 18:22 36.81294 23.92711 36268 ft 386 kts 322°
2026-05-05 18:23 36.82738 23.91320 36443 ft 386 kts 322°
2026-05-05 18:23 36.85542 23.88615 36764 ft 385 kts 321°
2026-05-05 18:23 36.87662 23.86568 37037 ft 384 kts 321°
2026-05-05 18:23 36.89769 23.84533 37300 ft 383 kts 321°
2026-05-05 18:24 36.91192 23.83156 37456 ft 382 kts 321°
2026-05-05 18:24 36.93261 23.81155 37680 ft 381 kts 321°
2026-05-05 18:24 36.95359 23.79122 37898 ft 381 kts 321°
2026-05-05 18:24 36.97452 23.77093 38044 ft 381 kts 321°
2026-05-05 18:25 36.99549 23.75057 38068 ft 382 kts 321°
2026-05-05 18:25 37.03744 23.70977 38065 ft 382 kts 320°
2026-05-05 18:26 37.07943 23.66901 38065 ft 382 kts 320°
2026-05-05 18:26 37.12137 23.62821 38068 ft 382 kts 320°
2026-05-05 18:27 37.16329 23.58737 38077 ft 382 kts 320°
2026-05-05 18:27 37.20529 23.54638 38077 ft 382 kts 320°
2026-05-05 18:28 37.26796 23.48512 38085 ft 383 kts 320°
2026-05-05 18:28 37.30991 23.44397 38086 ft 383 kts 320°
2026-05-05 18:29 37.35187 23.40279 38076 ft 383 kts 320°
2026-05-05 18:29 37.39390 23.36155 38087 ft 383 kts 320°
2026-05-05 18:30 37.43594 23.32016 38101 ft 383 kts 320°
2026-05-05 18:30 37.47784 23.27879 38093 ft 384 kts 320°
2026-05-05 18:31 37.51965 23.23757 38082 ft 386 kts 320°
2026-05-05 18:31 37.56240 23.19535 38076 ft 394 kts 320°
2026-05-05 18:32 37.60571 23.15243 38078 ft 397 kts 320°
2026-05-05 18:32 37.64936 23.10963 38076 ft 398 kts 323°
2026-05-05 18:33 37.69517 23.07063 38083 ft 401 kts 324°
2026-05-05 18:33 37.74221 23.03262 38096 ft 402 kts 325°
2026-05-05 18:34 37.78948 22.99451 38101 ft 403 kts 324°
2026-05-05 18:34 37.83666 22.95601 38109 ft 403 kts 324°
2026-05-05 18:35 37.88367 22.91732 38106 ft 404 kts 324°
2026-05-05 18:35 37.93041 22.87875 38109 ft 404 kts 324°
2026-05-05 18:36 37.97747 22.84007 38124 ft 404 kts 324°
2026-05-05 18:36 38.02475 22.80121 38115 ft 405 kts 324°
2026-05-05 18:37 38.07077 22.76325 38101 ft 405 kts 324°
2026-05-05 18:37 38.11806 22.72404 38106 ft 406 kts 324°
2026-05-05 18:38 38.16509 22.68508 38110 ft 406 kts 324°
2026-05-05 18:38 38.21247 22.64583 38115 ft 407 kts 324°
2026-05-05 18:39 38.25990 22.60647 38128 ft 407 kts 324°
2026-05-05 18:39 38.30731 22.56702 38126 ft 407 kts 324°
2026-05-05 18:40 38.35474 22.52741 38123 ft 408 kts 324°
2026-05-05 18:40 38.40189 22.48804 38121 ft 408 kts 324°
2026-05-05 18:41 38.44938 22.44842 38110 ft 408 kts 324°
2026-05-05 18:41 38.49681 22.40870 38113 ft 408 kts 324°
2026-05-05 18:42 38.54420 22.36888 38118 ft 408 kts 324°
2026-05-05 18:42 38.59138 22.32927 38120 ft 408 kts 324°
2026-05-05 18:43 38.63885 22.28930 38131 ft 409 kts 324°
2026-05-05 18:43 38.68626 22.24936 38130 ft 408 kts 323°
2026-05-05 18:44 38.73374 22.20930 38130 ft 408 kts 324°
2026-05-05 18:44 38.78117 22.16915 38143 ft 409 kts 324°
2026-05-05 18:45 38.82826 22.12929 38124 ft 409 kts 323°
2026-05-05 18:45 38.87574 22.08906 38119 ft 409 kts 323°
2026-05-05 18:46 38.92316 22.04878 38129 ft 409 kts 323°
2026-05-05 18:46 38.97065 22.00833 38127 ft 410 kts 323°
2026-05-05 18:47 39.01808 21.96785 38133 ft 409 kts 323°
2026-05-05 18:47 39.06527 21.92767 38128 ft 409 kts 323°
2026-05-05 18:48 39.11270 21.88706 38129 ft 410 kts 323°
2026-05-05 18:48 39.16016 21.84633 38116 ft 410 kts 323°
2026-05-05 18:49 39.20762 21.80563 38118 ft 410 kts 323°
2026-05-05 18:49 39.25480 21.76515 38114 ft 410 kts 323°
2026-05-05 18:50 39.29372 21.73165 38118 ft 410 kts 323°
2026-05-05 18:50 39.31467 21.71361 38117 ft 410 kts 323°
2026-05-05 18:51 39.36220 21.67261 38109 ft 411 kts 323°
2026-05-05 18:51 39.40968 21.63156 38108 ft 411 kts 323°
2026-05-05 18:52 39.45693 21.59074 38109 ft 411 kts 323°
2026-05-05 18:52 39.50430 21.54966 38105 ft 410 kts 323°
2026-05-05 18:53 39.55177 21.50840 38132 ft 411 kts 323°
2026-05-05 18:53 39.59897 21.46739 38118 ft 411 kts 323°
2026-05-05 18:54 39.64641 21.42601 38116 ft 411 kts 323°
2026-05-05 18:54 39.69385 21.38457 38126 ft 411 kts 323°
2026-05-05 18:55 39.74135 21.34310 38124 ft 412 kts 323°
2026-05-05 18:55 39.78886 21.30149 38129 ft 412 kts 324°
2026-05-05 18:56 39.83633 21.25979 38131 ft 413 kts 323°
2026-05-05 18:56 39.88367 21.21812 38119 ft 413 kts 324°
2026-05-05 18:57 39.93134 21.17622 38121 ft 414 kts 323°
2026-05-05 18:57 39.97911 21.13421 38112 ft 414 kts 323°
2026-05-05 18:58 40.02685 21.09205 38135 ft 414 kts 323°
2026-05-05 18:58 40.07424 21.05001 38124 ft 416 kts 323°
2026-05-05 18:59 40.12206 21.00752 38119 ft 416 kts 323°
2026-05-05 18:59 40.16999 20.96500 38126 ft 416 kts 323°
2026-05-05 19:00 40.21795 20.92240 38128 ft 417 kts 323°
2026-05-05 19:00 40.26547 20.87999 38130 ft 417 kts 323°
2026-05-05 19:01 40.31343 20.83722 38137 ft 417 kts 324°
2026-05-05 19:01 40.36146 20.79437 38122 ft 418 kts 324°
2026-05-05 19:02 40.40949 20.75140 38129 ft 418 kts 323°
2026-05-05 19:02 40.45720 20.70853 38137 ft 418 kts 323°
2026-05-05 19:03 40.50525 20.66540 38137 ft 418 kts 323°
2026-05-05 19:03 40.55321 20.62217 38146 ft 418 kts 324°
2026-05-05 19:04 40.60116 20.57893 38143 ft 418 kts 324°
2026-05-05 19:04 40.64910 20.53556 38142 ft 418 kts 324°
2026-05-05 19:05 40.69673 20.49240 38144 ft 418 kts 324°
2026-05-05 19:05 40.74471 20.44897 38135 ft 418 kts 323°
2026-05-05 19:06 40.79266 20.40542 38144 ft 418 kts 323°
2026-05-05 19:06 40.84023 20.36209 38143 ft 418 kts 323°
2026-05-05 19:07 40.88789 20.31866 38154 ft 416 kts 323°
2026-05-05 19:07 40.93544 20.27518 38152 ft 414 kts 323°
2026-05-05 19:08 40.98280 20.23186 38147 ft 413 kts 323°
2026-05-05 19:08 41.03002 20.18867 38145 ft 413 kts 323°
2026-05-05 19:09 41.07689 20.14560 38144 ft 412 kts 323°
2026-05-05 19:09 41.12402 20.10217 38137 ft 412 kts 323°
2026-05-05 19:10 41.17119 20.05886 38133 ft 412 kts 323°
2026-05-05 19:10 41.21825 20.01539 38134 ft 412 kts 323°
2026-05-05 19:11 41.26532 19.97184 38143 ft 412 kts 323°
2026-05-05 19:11 41.31206 19.92852 38138 ft 412 kts 323°
2026-05-05 19:12 41.35905 19.88485 38137 ft 411 kts 323°
2026-05-05 19:12 41.40593 19.84126 38135 ft 411 kts 323°
2026-05-05 19:13 41.45284 19.79769 38129 ft 411 kts 323°
2026-05-05 19:13 41.49937 19.75434 38140 ft 411 kts 322°
2026-05-05 19:14 41.54608 19.71062 38133 ft 411 kts 322°
2026-05-05 19:14 41.59289 19.66680 38127 ft 410 kts 322°
2026-05-05 19:15 41.63961 19.62303 38123 ft 410 kts 322°
2026-05-05 19:15 41.68603 19.57933 38122 ft 410 kts 322°
2026-05-05 19:16 41.73273 19.53530 38119 ft 411 kts 322°
2026-05-05 19:16 41.77944 19.49127 38116 ft 411 kts 322°
2026-05-05 19:17 41.82624 19.44714 38108 ft 412 kts 322°
2026-05-05 19:17 41.87305 19.40287 38107 ft 412 kts 322°
2026-05-05 19:18 41.91967 19.35871 38106 ft 413 kts 322°
2026-05-05 19:18 41.96654 19.31420 38109 ft 413 kts 322°
2026-05-05 19:19 42.01348 19.26956 38116 ft 413 kts 322°
2026-05-05 19:19 42.06036 19.22483 38110 ft 413 kts 322°
2026-05-05 19:20 42.10724 19.17993 38111 ft 414 kts 322°
2026-05-05 19:20 42.15379 19.13527 38109 ft 414 kts 322°
2026-05-05 19:21 42.20075 19.09022 38116 ft 414 kts 322°
2026-05-05 19:21 42.24768 19.04518 38125 ft 414 kts 322°
2026-05-05 19:22 42.29459 18.99999 38116 ft 415 kts 322°
2026-05-05 19:22 42.34160 18.95472 38110 ft 415 kts 322°
2026-05-05 19:23 42.38833 18.90958 38109 ft 415 kts 322°
2026-05-05 19:23 42.43531 18.86411 38109 ft 416 kts 322°
2026-05-05 19:24 42.48237 18.81851 38108 ft 416 kts 321°
2026-05-05 19:24 42.52951 18.77268 38106 ft 417 kts 321°
2026-05-05 19:25 42.57667 18.72684 38098 ft 417 kts 321°
2026-05-05 19:25 42.62350 18.68123 38104 ft 417 kts 321°
2026-05-05 19:26 42.67060 18.63517 38109 ft 417 kts 321°
2026-05-05 19:26 42.71772 18.58900 38113 ft 418 kts 321°
2026-05-05 19:27 42.76491 18.54272 38105 ft 418 kts 321°
2026-05-05 19:27 42.81180 18.49658 38107 ft 419 kts 321°
2026-05-05 19:28 42.85902 18.45006 38107 ft 419 kts 321°
2026-05-05 19:28 42.90623 18.40354 38115 ft 419 kts 321°
2026-05-05 19:29 42.95340 18.35691 38116 ft 419 kts 321°
2026-05-05 19:29 43.00070 18.31005 38082 ft 421 kts 321°
2026-05-05 19:30 43.04788 18.26324 38084 ft 423 kts 321°
2026-05-05 19:30 43.09556 18.21585 38097 ft 424 kts 321°
2026-05-05 19:31 43.14335 18.16837 38102 ft 425 kts 321°
2026-05-05 19:31 43.19122 18.12061 38086 ft 426 kts 321°
2026-05-05 19:32 43.23883 18.07289 38081 ft 428 kts 321°
2026-05-05 19:32 43.28697 18.02471 38081 ft 429 kts 321°
2026-05-05 19:33 43.33510 17.97638 38087 ft 429 kts 321°
2026-05-05 19:33 43.38327 17.92784 38098 ft 430 kts 321°
2026-05-05 19:34 43.43149 17.87919 38094 ft 430 kts 321°
2026-05-05 19:35 43.50340 17.80654 38112 ft 430 kts 321°
2026-05-05 19:35 43.53114 17.77844 38113 ft 430 kts 321°
2026-05-05 19:36 43.57938 17.72964 38107 ft 430 kts 320°
2026-05-05 19:36 43.62748 17.68083 38122 ft 429 kts 320°
2026-05-05 19:37 43.64127 17.66677 38110 ft 429 kts 320°
2026-05-05 19:37 43.64747 17.66050 38111 ft 430 kts 320°
2026-05-05 19:38 43.66174 17.64602 38113 ft 430 kts 320°
2026-05-05 19:38 43.67536 17.63216 38111 ft 430 kts 320°
2026-05-05 19:39 43.69012 17.61707 38107 ft 430 kts 320°
2026-05-05 19:39 43.70189 17.60500 38105 ft 430 kts 320°
2026-05-05 19:40 43.71908 17.58737 38104 ft 430 kts 320°
2026-05-05 19:40 43.74064 17.56529 38105 ft 431 kts 320°
2026-05-05 19:41 43.78876 17.51595 38108 ft 431 kts 320°
2026-05-05 19:41 43.83662 17.46688 38108 ft 430 kts 320°
2026-05-05 19:42 43.88478 17.41744 38119 ft 431 kts 320°
2026-05-05 19:42 43.93299 17.36781 38110 ft 431 kts 320°
2026-05-05 19:43 43.98118 17.31816 38102 ft 432 kts 320°
2026-05-05 19:43 44.02909 17.26868 38101 ft 432 kts 320°
2026-05-05 19:44 44.07717 17.21876 38122 ft 432 kts 320°
2026-05-05 19:44 44.12539 17.16861 38096 ft 433 kts 320°
2026-05-05 19:45 44.17370 17.11835 38075 ft 434 kts 320°
2026-05-05 19:45 44.22209 17.06787 38078 ft 435 kts 320°
2026-05-05 19:46 44.27022 17.01759 38071 ft 435 kts 320°
2026-05-05 19:46 44.31864 16.96691 38087 ft 435 kts 320°
2026-05-05 19:47 44.36713 16.91605 38068 ft 436 kts 320°
2026-05-05 19:47 44.41567 16.86506 38067 ft 437 kts 319°
2026-05-05 19:48 44.46418 16.81393 38057 ft 437 kts 319°
2026-05-05 19:48 44.51234 16.76307 38057 ft 437 kts 319°
2026-05-05 19:49 44.56086 16.71172 38053 ft 437 kts 319°
2026-05-05 19:49 44.60912 16.66049 38040 ft 438 kts 319°
2026-05-05 19:50 44.65777 16.60881 38030 ft 439 kts 319°
2026-05-05 19:50 44.70612 16.55736 38033 ft 439 kts 319°
2026-05-05 19:51 44.75480 16.50539 38033 ft 440 kts 319°
2026-05-05 19:51 44.80353 16.45329 38032 ft 440 kts 319°
2026-05-05 19:52 44.85235 16.40100 38015 ft 441 kts 319°
2026-05-05 19:52 44.90118 16.34856 38014 ft 442 kts 319°
2026-05-05 19:53 44.94975 16.29623 38009 ft 442 kts 319°
2026-05-05 19:53 44.99855 16.24345 38019 ft 442 kts 319°
2026-05-05 19:54 45.04743 16.19059 38025 ft 442 kts 319°
2026-05-05 19:54 45.09629 16.13759 38002 ft 443 kts 319°
2026-05-05 19:55 45.14516 16.08446 37995 ft 443 kts 319°
2026-05-05 19:55 45.19377 16.03159 38001 ft 444 kts 319°
2026-05-05 19:56 45.24267 15.97826 38026 ft 444 kts 319°
2026-05-05 19:56 45.29164 15.92470 38000 ft 444 kts 319°
2026-05-05 19:57 45.34061 15.87112 37993 ft 445 kts 319°
2026-05-05 19:57 45.38934 15.81765 37994 ft 445 kts 319°
2026-05-05 19:58 45.43830 15.76370 37995 ft 445 kts 319°
2026-05-05 19:58 45.48730 15.70965 38006 ft 446 kts 319°
2026-05-05 19:59 45.53634 15.65540 37993 ft 447 kts 319°
2026-05-05 19:59 45.58546 15.60093 37983 ft 448 kts 319°
2026-05-05 20:00 45.63436 15.54664 37984 ft 448 kts 319°
2026-05-05 20:00 45.68356 15.49185 37986 ft 449 kts 319°
2026-05-05 20:01 45.73277 15.43686 37985 ft 449 kts 319°
2026-05-05 20:01 45.78168 15.38225 37986 ft 449 kts 319°
2026-05-05 20:02 45.83090 15.32711 37985 ft 449 kts 319°
2026-05-05 20:02 45.88005 15.27184 37990 ft 449 kts 318°
2026-05-05 20:03 45.92913 15.21648 37986 ft 448 kts 318°
2026-05-05 20:03 45.97787 15.16145 37997 ft 449 kts 319°
2026-05-05 20:04 46.02703 15.10588 37983 ft 450 kts 319°
2026-05-05 20:04 46.07620 15.05012 37978 ft 450 kts 319°
2026-05-05 20:05 46.12543 14.99414 37980 ft 451 kts 319°
2026-05-05 20:05 46.17465 14.93796 37979 ft 451 kts 319°
2026-05-05 20:06 46.22350 14.88216 37997 ft 451 kts 317°
2026-05-05 20:06 46.27268 14.82595 37997 ft 450 kts 318°
2026-05-05 20:07 46.32177 14.76976 38003 ft 450 kts 319°
2026-05-05 20:07 46.37086 14.71331 37993 ft 451 kts 318°
2026-05-05 20:08 46.41990 14.65660 37983 ft 451 kts 318°
2026-05-05 20:08 46.46863 14.60020 37971 ft 451 kts 319°
2026-05-05 20:09 46.51767 14.54348 37967 ft 451 kts 317°
2026-05-05 20:09 46.56669 14.48650 37953 ft 451 kts 318°
2026-05-05 20:10 46.61568 14.42936 37949 ft 452 kts 319°
2026-05-05 20:10 46.66442 14.37249 37949 ft 452 kts 318°
2026-05-05 20:11 46.71349 14.31518 37969 ft 452 kts 319°
2026-05-05 20:11 46.76264 14.25768 37945 ft 454 kts 318°
2026-05-05 20:12 46.81184 14.19981 37938 ft 455 kts 318°
2026-05-05 20:12 46.86113 14.14179 37936 ft 455 kts 318°
2026-05-05 20:13 46.91009 14.08399 37938 ft 455 kts 318°
2026-05-05 20:13 46.95861 14.02664 37936 ft 445 kts 317°
2026-05-05 20:14 47.00670 13.96953 37927 ft 445 kts 317°
2026-05-05 20:14 47.05471 13.91230 37918 ft 445 kts 317°
2026-05-05 20:15 47.10245 13.85542 37886 ft 444 kts 317°
2026-05-05 20:15 47.12641 13.82685 37339 ft 444 kts 317°
2026-05-05 20:15 47.15031 13.79823 36607 ft 444 kts 317°
2026-05-05 20:15 47.17425 13.76949 35904 ft 444 kts 317°
2026-05-05 20:16 47.19817 13.74082 35212 ft 445 kts 316°
2026-05-05 20:16 47.22219 13.71204 34470 ft 447 kts 316°
2026-05-05 20:16 47.24632 13.68307 33672 ft 448 kts 316°
2026-05-05 20:16 47.27051 13.65395 32804 ft 450 kts 316°
2026-05-05 20:17 47.29471 13.62465 31897 ft 451 kts 314°
2026-05-05 20:17 47.31758 13.59306 30959 ft 452 kts 311°
2026-05-05 20:17 47.33977 13.56098 30018 ft 455 kts 311°
2026-05-05 20:17 47.36204 13.52797 29174 ft 452 kts 310°
2026-05-05 20:18 47.38403 13.49502 28555 ft 449 kts 310°
2026-05-05 20:18 47.40581 13.46234 27978 ft 445 kts 310°
2026-05-05 20:18 47.42742 13.43003 27375 ft 441 kts 310°
2026-05-05 20:18 47.44893 13.39806 26819 ft 437 kts 310°
2026-05-05 20:19 47.47033 13.36636 26259 ft 434 kts 310°
2026-05-05 20:19 47.49156 13.33491 25710 ft 430 kts 310°
2026-05-05 20:19 47.51259 13.30370 25173 ft 426 kts 310°
2026-05-05 20:19 47.53313 13.27319 24644 ft 423 kts 310°
2026-05-05 20:20 47.55375 13.24249 24135 ft 420 kts 310°
2026-05-05 20:20 47.57453 13.21228 23642 ft 417 kts 311°
2026-05-05 20:20 47.59546 13.18266 23165 ft 415 kts 312°
2026-05-05 20:20 47.61640 13.15350 22652 ft 411 kts 313°
2026-05-05 20:21 47.63718 13.12471 22125 ft 407 kts 313°
2026-05-05 20:21 47.65775 13.09612 21655 ft 404 kts 312°
2026-05-05 20:21 47.67810 13.06763 21150 ft 401 kts 312°
2026-05-05 20:21 47.69822 13.03924 20682 ft 397 kts 312°
2026-05-05 20:22 47.71789 13.01131 20211 ft 396 kts 312°
2026-05-05 20:22 47.73769 12.98311 19736 ft 393 kts 313°
2026-05-05 20:22 47.75738 12.95503 19282 ft 390 kts 313°
2026-05-05 20:22 47.77692 12.92718 18828 ft 388 kts 313°
2026-05-05 20:23 47.79633 12.89956 18384 ft 385 kts 313°
2026-05-05 20:23 47.81562 12.87214 17927 ft 382 kts 313°
2026-05-05 20:23 47.83470 12.84491 17419 ft 379 kts 313°
2026-05-05 20:23 47.85366 12.81779 16921 ft 377 kts 313°
2026-05-05 20:24 47.87250 12.79078 16423 ft 374 kts 313°
2026-05-05 20:24 47.89116 12.76397 15946 ft 371 kts 313°
2026-05-05 20:24 47.90968 12.73735 15471 ft 369 kts 314°
2026-05-05 20:24 47.92784 12.71128 15009 ft 366 kts 314°
2026-05-05 20:25 47.94615 12.68504 14545 ft 364 kts 314°
2026-05-05 20:25 47.96434 12.65896 14096 ft 362 kts 314°
2026-05-05 20:25 47.98246 12.63299 13641 ft 360 kts 314°
2026-05-05 20:25 48.00047 12.60716 13135 ft 358 kts 314°
2026-05-05 20:26 48.01830 12.58152 12642 ft 355 kts 314°
2026-05-05 20:26 48.03601 12.55596 12150 ft 352 kts 313°
2026-05-05 20:26 48.05358 12.53061 11658 ft 350 kts 313°
2026-05-05 20:26 48.07100 12.50541 11188 ft 347 kts 313°
2026-05-05 20:27 48.08802 12.48070 10729 ft 345 kts 313°
2026-05-05 20:27 48.10514 12.45581 10265 ft 341 kts 313°
2026-05-05 20:27 48.12202 12.43130 9811 ft 336 kts 313°
2026-05-05 20:27 48.13872 12.40708 9319 ft 332 kts 313°
2026-05-05 20:28 48.15523 12.38315 8818 ft 329 kts 313°
2026-05-05 20:28 48.17138 12.35971 8331 ft 315 kts 313°
2026-05-05 20:28 48.18669 12.33745 7847 ft 299 kts 313°
2026-05-05 20:28 48.20130 12.31619 7374 ft 286 kts 313°
2026-05-05 20:29 48.21523 12.29588 6919 ft 275 kts 313°
2026-05-05 20:29 48.22859 12.27636 6455 ft 270 kts 313°
2026-05-05 20:29 48.24194 12.25680 5984 ft 265 kts 313°
2026-05-05 20:29 48.25487 12.23786 5505 ft 256 kts 313°
2026-05-05 20:30 48.26768 12.21983 5023 ft 251 kts 321°
2026-05-05 20:30 48.28356 12.20944 4807 ft 252 kts 342°
2026-05-05 20:30 48.30070 12.20354 4795 ft 254 kts 344°
2026-05-05 20:30 48.31800 12.19813 4799 ft 254 kts 345°
2026-05-05 20:31 48.33508 12.19288 4799 ft 243 kts 345°
2026-05-05 20:31 48.35014 12.18536 4802 ft 221 kts 326°
2026-05-05 20:31 48.36118 12.17112 4807 ft 203 kts 304°
2026-05-05 20:31 48.36743 12.15249 4809 ft 199 kts 283°
2026-05-05 20:32 48.36855 12.13191 4809 ft 199 kts 265°
2026-05-05 20:32 48.36730 12.11120 4813 ft 199 kts 265°
2026-05-05 20:32 48.36609 12.09047 4812 ft 199 kts 264°
2026-05-05 20:32 48.36466 12.06978 4810 ft 200 kts 264°
2026-05-05 20:33 48.36366 12.05603 4715 ft 200 kts 264°
2026-05-05 20:33 48.36213 12.03526 4494 ft 199 kts 264°
2026-05-05 20:33 48.36059 12.01460 4234 ft 198 kts 264°
2026-05-05 20:33 48.35863 11.98823 3894 ft 185 kts 264°
2026-05-05 20:34 48.35723 11.96952 3660 ft 176 kts 264°
2026-05-05 20:34 48.35589 11.95163 3442 ft 167 kts 264°
2026-05-05 20:34 48.35463 11.93487 3231 ft 156 kts 264°
2026-05-05 20:34 48.35385 11.92442 3114 ft 148 kts 264°
2026-05-05 20:35 48.35274 11.90969 2917 ft 137 kts 264°
2026-05-05 20:35 48.35168 11.89564 2723 ft 134 kts 264°
2026-05-05 20:35 48.35064 11.88179 2541 ft 133 kts 263°
2026-05-05 20:35 48.34923 11.86325 2295 ft 137 kts 264°
2026-05-05 20:36 48.34814 11.84885 2111 ft 140 kts 263°
2026-05-05 20:36 48.34705 11.83439 1923 ft 139 kts 263°
2026-05-05 20:36 48.34632 11.82468 1801 ft 138 kts 263°
2026-05-05 20:36 48.34521 11.81033 1632 ft 139 kts 263°
2026-05-05 20:37 48.34418 11.79635 1514 ft 137 kts 263°
2026-05-05 20:37 48.34298 11.78157 1839 ft 146 kts 262°
2026-05-05 20:37 48.34133 11.76588 2091 ft 170 kts 259°
2026-05-05 20:37 48.33938 11.74720 2540 ft 189 kts 261°
2026-05-05 20:38 48.33391 11.72744 2537 ft 220 kts 236°
2026-05-05 20:38 48.32268 11.71101 2537 ft 233 kts 211°
2026-05-05 20:38 48.30684 11.70545 2629 ft 244 kts 178°
2026-05-05 20:38 48.29020 11.71153 3330 ft 249 kts 166°
2026-05-05 20:39 48.27394 11.71973 4022 ft 250 kts 165°
2026-05-05 20:39 48.25743 11.72843 4706 ft 253 kts 165°
2026-05-05 20:39 48.24073 11.73730 4947 ft 255 kts 163°
2026-05-05 20:39 48.22557 11.75100 5001 ft 261 kts 136°
2026-05-05 20:40 48.21635 11.77441 5003 ft 265 kts 106°
2026-05-05 20:40 48.21497 11.80191 5011 ft 266 kts 87°
2026-05-05 20:40 48.21483 11.82963 5002 ft 266 kts 101°
2026-05-05 20:40 48.21115 11.85677 5005 ft 266 kts 103°
2026-05-05 20:41 48.20746 11.88356 5012 ft 266 kts 102°
2026-05-05 20:41 48.20377 11.91071 5004 ft 266 kts 102°
2026-05-05 20:41 48.20009 11.93792 5004 ft 266 kts 103°
2026-05-05 20:41 48.19642 11.96512 5005 ft 266 kts 102°
2026-05-05 20:42 48.19274 11.99222 5004 ft 266 kts 102°
2026-05-05 20:42 48.18903 12.01939 5003 ft 266 kts 102°
2026-05-05 20:42 48.18534 12.04651 5001 ft 265 kts 102°
2026-05-05 20:42 48.18177 12.07370 5002 ft 266 kts 97°
2026-05-05 20:43 48.18074 12.10136 5004 ft 266 kts 90°
2026-05-05 20:43 48.18063 12.12872 5001 ft 266 kts 89°
2026-05-05 20:43 48.18061 12.15643 4999 ft 266 kts 89°
2026-05-05 20:43 48.18255 12.18392 4999 ft 265 kts 71°
2026-05-05 20:44 48.19128 12.20775 4998 ft 260 kts 45°
2026-05-05 20:44 48.20531 12.22377 4919 ft 247 kts 21°
2026-05-05 20:44 48.22122 12.23000 4450 ft 232 kts 358°
2026-05-05 20:44 48.23678 12.22674 4042 ft 222 kts 336°
2026-05-05 20:45 48.26201 12.20117 3999 ft 220 kts 317°
2026-05-05 20:45 48.27378 12.18687 3999 ft 221 kts 318°
2026-05-05 20:45 48.28572 12.17243 3999 ft 221 kts 318°
2026-05-05 20:46 48.29767 12.15794 4001 ft 221 kts 318°
2026-05-05 20:46 48.30961 12.14349 4001 ft 221 kts 318°
2026-05-05 20:46 48.32155 12.12895 4001 ft 221 kts 317°
2026-05-05 20:46 48.33348 12.11441 4001 ft 221 kts 317°
2026-05-05 20:47 48.34511 12.09976 3999 ft 222 kts 311°
2026-05-05 20:47 48.35434 12.08206 3994 ft 208 kts 297°
2026-05-05 20:47 48.35989 12.06252 4000 ft 201 kts 284°
2026-05-05 20:47 48.36213 12.04205 4000 ft 196 kts 272°
2026-05-05 20:48 48.36137 12.02262 3995 ft 178 kts 264°
2026-05-05 20:48 48.35997 12.00460 3907 ft 169 kts 264°
2026-05-05 20:48 48.35853 11.98780 3829 ft 157 kts 263°
2026-05-05 20:48 48.35723 11.97191 3758 ft 150 kts 264°
2026-05-05 20:49 48.35635 11.95636 3501 ft 149 kts 265°
2026-05-05 20:49 48.35525 11.94101 3198 ft 146 kts 264°
2026-05-05 20:49 48.35395 11.92611 2977 ft 146 kts 262°
2026-05-05 20:49 48.35256 11.91102 2738 ft 143 kts 263°
2026-05-05 20:50 48.35168 11.89660 2555 ft 137 kts 266°
2026-05-05 20:50 48.35060 11.88240 2338 ft 138 kts 263°
2026-05-05 20:50 48.34947 11.86796 2165 ft 140 kts 264°
2026-05-05 20:50 48.34852 11.85337 2012 ft 140 kts 261°
2026-05-05 20:51 48.34731 11.83875 1892 ft 141 kts 264°
2026-05-05 20:51 48.34629 11.82424 1741 ft 140 kts 263°
2026-05-05 20:51 48.34518 11.80968 1613 ft 141 kts 263°
2026-05-05 20:51 48.34421 11.79548 1485 ft 129 kts 263°
2026-05-05 20:52 48.34332 11.78414 1479 ft 84 kts 263°
2026-05-05 20:52 48.34285 11.77831 1486 ft 45 kts 263°
2026-05-05 20:52 48.34257 11.77390 1485 ft 40 kts 271°
2026-05-05 20:52 48.34330 11.77011 1481 ft 37 kts 293°
2026-05-05 20:53 48.34397 11.76789 1478 ft 13 kts 308°
2026-05-05 20:53 48.34414 11.76779 1482 ft 6 kts 340°
2026-05-05 20:53 48.34471 11.76844 1483 ft 13 kts 72°
2026-05-05 20:53 48.34483 11.76973 1476 ft 16 kts 83°
2026-05-05 20:54 48.34504 11.77243 1485 ft 32 kts 84°
2026-05-05 20:54 48.34527 11.77532 1485 ft 26 kts 83°
2026-05-05 20:54 48.34547 11.77809 1485 ft 28 kts 83°
2026-05-05 20:54 48.34563 11.78010 1479 ft 11 kts 83°
2026-05-05 20:55 48.34575 11.78168 1485 ft 20 kts 83°
2026-05-05 20:55 48.34593 11.78409 1485 ft 24 kts 84°
2026-05-05 20:55 48.34613 11.78672 1483 ft 26 kts 83°
2026-05-05 20:55 48.34636 11.78954 1485 ft 28 kts 83°
2026-05-05 20:56 48.34658 11.79257 1485 ft 30 kts 83°
2026-05-05 20:56 48.34682 11.79568 1473 ft 23 kts 83°
2026-05-05 20:56 48.34779 11.79706 1485 ft 22 kts
2026-05-05 20:56 48.34911 11.79685 1482 ft 19 kts 353°
2026-05-05 20:57 48.35052 11.79660 1474 ft 22 kts 353°
2026-05-05 20:57 48.35208 11.79633 1473 ft 23 kts 354°
2026-05-05 20:57 48.35369 11.79608 1479 ft 25 kts 354°
2026-05-05 20:57 48.35540 11.79575 1482 ft 19 kts 353°
2026-05-05 20:58 48.35607 11.79610 1474 ft 6 kts 64°
2026-05-05 20:58 48.35618 11.79704 1482 ft 11 kts 83°